Total_Precipitation_Accumulation
0.04 0.05 0.04 0.05 0.04 0.02 0.03 0.04 0.03 0.04 0.03 0.04 0.03 0.04 0.03 0.04 0.02 0.02 0.02 0.03 0.02 0.02 0.02 0.01 0.01 0.01 0.00 0.01 0.00 0.00 0.00 0.01 0.00 0.00 0.00 0.00 0.00 0.00 0.00 0.00 0.00 0.00 0.00 0.00 0.00 0.00 0.00 0.00 0.00 0.00 0.00 0.00 0.00 0.00 0.00 0.00 0.00 0.00 0.00 0.00 0.00 0.00 0.00 0.00 0.00 0.00 0.00 0.00 0.00 0.00 0.00 0.00 0.00 0.00 0.00 0.00 0.00 0.01 0.00 0.02 0.02 0.03 0.09 0.07 0.12 0.15 0.09 0.14
0.05 0.04 0.04 0.04 0.02 0.03 0.03 0.03 0.03 0.03 0.02 0.02 0.02 0.02 0.03 0.03 0.03 0.02 0.02 0.01 0.02 0.02 0.01 0.03 0.01 0.01 0.01 0.00 0.00 0.00 0.00 0.00 0.00 0.00 0.00 0.00 0.00 0.00 0.00 0.00 0.00 0.00 0.00 0.00 0.00 0.00 0.00 0.00 0.00 0.00 0.00 0.00 0.00 0.00 0.00 0.00 0.00 0.00 0.00 0.00 0.00 0.00 0.00 0.00 0.00 0.00 0.00 0.00 0.00 0.00 0.00 0.00 0.00 0.01 0.00 0.01 0.00 0.00 0.01 0.06 0.04 0.14 0.19 0.10 0.14 0.10 0.15 0.17
0.04 0.04 0.03 0.02 0.03 0.04 0.04 0.03 0.04 0.03 0.03 0.02 0.02 0.03 0.02 0.02 0.03 0.02 0.02 0.03 0.03 0.02 0.01 0.01 0.01 0.00 0.00 0.00 0.00 0.00 0.00 0.00 0.00 0.00 0.00 0.00 0.00 0.00 0.00 0.00 0.00 0.00 0.00 0.00 0.00 0.00 0.00 0.00 0.00 0.00 0.00 0.00 0.00 0.00 0.00 0.00 0.00 0.00 0.00 0.00 0.00 0.00 0.00 0.00 0.00 0.00 0.00 0.00 0.00 0.00 0.00 0.00 0.00 0.00 0.00 0.03 0.01 0.00 0.01 0.07 0.07 0.12 0.27 0.12 0.15 0.15 0.13 0.31
0.04 0.03 0.03 0.03 0.03 0.03 0.03 0.03 0.02 0.02 0.02 0.03 0.02 0.03 0.04 0.03 0.02 0.02 0.03 0.03 0.01 0.01 0.01 0.00 0.00 0.00 0.00 0.00 0.00 0.00 0.00 0.00 0.00 0.00 0.00 0.00 0.00 0.00 0.00 0.00 0.00 0.00 0.00 0.00 0.00 0.00 0.00 0.00 0.00 0.00 0.00 0.00 0.00 0.00 0.00 0.00 0.00 0.00 0.00 0.00 0.00 0.00 0.00 0.00 0.00 0.00 0.00 0.00 0.00 0.00 0.00 0.00 0.00 0.00 0.00 0.00 0.02 0.01 0.10 0.00 0.03 0.11 0.22 0.17 0.20 0.18 0.17 0.27
0.05 0.03 0.04 0.02 0.02 0.02 0.03 0.02 0.02 0.03 0.03 0.03 0.03 0.03 0.05 0.03 0.02 0.02 0.02 0.01 0.01 0.01 0.01 0.00 0.00 0.00 0.00 0.00 0.00 0.00 0.00 0.00 0.00 0.00 0.00 0.00 0.00 0.00 0.00 0.00 0.00 0.00 0.00 0.00 0.00 0.00 0.00 0.00 0.00 0.00 0.00 0.00 0.00 0.00 0.00 0.00 0.00 0.00 0.00 0.00 0.00 0.00 0.00 0.00 0.00 0.00 0.00 0.00 0.00 0.00 0.00 0.00 0.00 0.00 0.00 0.01 0.02 0.24 0.04 0.01 0.02 0.42 0.81 0.16 0.27 0.12 0.24 0.31
0.03 0.03 0.03 0.02 0.02 0.03 0.03 0.02 0.02 0.03 0.03 0.03 0.03 0.02 0.03 0.04 0.03 0.03 0.02 0.01 0.01 0.01 0.00 0.00 0.00 0.00 0.00 0.00 0.00 0.00 0.00 0.00 0.00 0.00 0.00 0.00 0.00 0.00 0.00 0.00 0.00 0.00 0.00 0.00 0.00 0.00 0.00 0.00 0.00 0.00 0.00 0.00 0.00 0.00 0.00 0.00 0.00 0.00 0.00 0.00 0.00 0.00 0.00 0.00 0.00 0.00 0.00 0.00 0.00 0.00 0.00 0.00 0.00 0.00 0.00 0.00 0.04 0.05 0.01 0.01 0.00 0.08 0.41 0.27 0.22 0.13 0.21 0.56
0.02 0.03 0.03 0.02 0.02 0.03 0.03 0.04 0.04 0.03 0.03 0.03 0.04 0.03 0.03 0.04 0.02 0.02 0.02 0.01 0.01 0.01 0.00 0.00 0.00 0.00 0.00 0.00 0.00 0.00 0.00 0.00 0.00 0.00 0.00 0.00 0.00 0.00 0.00 0.00 0.00 0.00 0.00 0.00 0.00 0.00 0.00 0.00 0.00 0.00 0.00 0.00 0.00 0.00 0.00 0.00 0.00 0.00 0.00 0.00 0.00 0.00 0.00 0.00 0.00 0.00 0.00 0.00 0.00 0.00 0.00 0.00 0.00 0.00 0.00 0.00 0.00 0.00 0.01 0.02 0.04 0.14 0.30 0.17 0.14 0.36 0.25 0.22
0.03 0.03 0.02 0.02 0.02 0.02 0.03 0.03 0.03 0.02 0.02 0.04 0.04 0.02 0.02 0.03 0.04 0.03 0.01 0.01 0.01 0.00 0.01 0.00 0.00 0.00 0.00 0.00 0.00 0.00 0.00 0.00 0.00 0.00 0.00 0.00 0.00 0.00 0.00 0.00 0.00 0.00 0.00 0.00 0.00 0.00 0.00 0.00 0.00 0.00 0.00 0.00 0.00 0.00 0.00 0.00 0.00 0.00 0.00 0.00 0.00 0.00 0.00 0.00 0.00 0.00 0.00 0.00 0.00 0.00 0.00 0.00 0.00 0.00 0.00 0.00 0.00 0.00 0.01 0.01 0.03 0.13 0.25 0.09 0.09 0.21 0.19 0.18
0.02 0.01 0.01 0.02 0.02 0.02 0.03 0.02 0.02 0.02 0.03 0.03 0.03 0.02 0.03 0.03 0.03 0.02 0.01 0.02 0.01 0.01 0.00 0.00 0.00 0.00 0.00 0.00 0.00 0.00 0.00 0.00 0.00 0.00 0.00 0.00 0.00 0.00 0.00 0.00 0.00 0.00 0.00 0.00 0.00 0.00 0.00 0.00 0.00 0.00 0.00 0.00 0.00 0.00 0.00 0.00 0.00 0.00 0.00 0.00 0.00 0.00 0.00 0.00 0.00 0.00 0.00 0.00 0.00 0.00 0.00 0.00 0.00 0.00 0.00 0.00 0.00 0.00 0.00 0.01 0.04 0.17 0.13 0.13 0.14 0.11 0.32 0.29
0.01 0.01 0.01 0.02 0.02 0.02 0.02 0.02 0.03 0.03 0.02 0.03 0.03 0.04 0.04 0.02 0.02 0.02 0.01 0.01 0.00 0.01 0.00 0.00 0.00 0.00 0.00 0.00 0.00 0.00 0.00 0.00 0.00 0.00 0.00 0.00 0.00 0.00 0.00 0.00 0.00 0.00 0.00 0.00 0.00 0.00 0.00 0.00 0.00 0.00 0.00 0.00 0.00 0.00 0.00 0.00 0.00 0.00 0.00 0.00 0.00 0.00 0.00 0.00 0.00 0.00 0.00 0.00 0.00 0.00 0.00 0.00 0.00 0.00 0.00 0.00 0.00 0.01 0.00 0.03 0.12 0.17 0.13 0.05 0.21 0.23 0.38 0.31
0.01 0.01 0.01 0.01 0.02 0.01 0.02 0.02 0.02 0.02 0.03 0.02 0.03 0.03 0.02 0.02 0.02 0.02 0.02 0.00 0.01 0.01 0.01 0.00 0.01 0.00 0.00 0.00 0.00 0.00 0.00 0.00 0.00 0.00 0.00 0.00 0.00 0.00 0.00 0.00 0.00 0.00 0.00 0.00 0.00 0.00 0.00 0.00 0.00 0.00 0.00 0.00 0.00 0.00 0.00 0.00 0.00 0.00 0.00 0.00 0.00 0.00 0.00 0.00 0.00 0.00 0.00 0.00 0.00 0.00 0.00 0.00 0.00 0.00 0.00 0.00 0.01 0.00 0.00 0.03 0.04 0.07 0.15 0.17 0.27 0.30 0.25 0.35
0.01 0.01 0.01 0.01 0.02 0.02 0.02 0.02 0.02 0.02 0.01 0.03 0.02 0.01 0.01 0.01 0.02 0.01 0.01 0.01 0.01 0.01 0.00 0.00 0.01 0.03 0.01 0.01 0.00 0.00 0.00 0.00 0.00 0.00 0.00 0.00 0.00 0.00 0.00 0.00 0.00 0.00 0.00 0.00 0.00 0.00 0.00 0.00 0.00 0.00 0.00 0.00 0.00 0.00 0.00 0.00 0.00 0.00 0.00 0.00 0.00 0.00 0.00 0.00 0.00 0.00 0.00 0.00 0.00 0.00 0.00 0.00 0.00 0.00 0.00 0.00 0.00 0.00 0.00 0.03 0.04 0.07 0.08 0.12 0.12 0.17 0.15 0.44
0.01 0.01 0.01 0.01 0.01 0.03 0.01 0.01 0.02 0.02 0.02 0.01 0.01 0.01 0.01 0.01 0.01 0.01 0.01 0.01 0.00 0.00 0.00 0.01 0.00 0.00 0.02 0.00 0.00 0.00 0.00 0.00 0.00 0.00 0.00 0.00 0.00 0.00 0.00 0.00 0.00 0.00 0.00 0.00 0.00 0.00 0.00 0.00 0.00 0.00 0.00 0.00 0.00 0.00 0.00 0.00 0.00 0.00 0.00 0.00 0.00 0.00 0.00 0.00 0.00 0.00 0.00 0.00 0.00 0.00 0.00 0.00 0.00 0.00 0.00 0.02 0.00 0.01 0.01 0.02 0.02 0.06 0.08 0.12 0.22 0.17 0.24 0.33
0.01 0.01 0.02 0.01 0.01 0.01 0.02 0.02 0.02 0.02 0.02 0.01 0.02 0.02 0.01 0.00 0.00 0.01 0.01 0.01 0.01 0.01 0.01 0.00 0.03 0.03 0.02 0.00 0.00 0.00 0.00 0.00 0.00 0.00 0.00 0.00 0.00 0.00 0.00 0.00 0.00 0.00 0.00 0.00 0.00 0.00 0.00 0.00 0.00 0.00 0.00 0.00 0.00 0.00 0.00 0.00 0.00 0.00 0.00 0.00 0.00 0.00 0.00 0.00 0.00 0.00 0.00 0.00 0.00 0.00 0.00 0.00 0.00 0.00 0.00 0.01 0.00 0.00 0.01 0.03 0.11 0.22 0.15 0.13 0.24 0.14 0.20 0.27
0.01 0.01 0.01 0.01 0.02 0.01 0.03 0.02 0.02 0.01 0.01 0.02 0.01 0.00 0.00 0.00 0.00 0.00 0.01 0.00 0.01 0.00 0.01 0.03 0.02 0.01 0.02 0.00 0.00 0.00 0.00 0.00 0.00 0.00 0.00 0.00 0.00 0.00 0.00 0.00 0.00 0.00 0.00 0.00 0.00 0.00 0.00 0.00 0.00 0.00 0.00 0.00 0.00 0.00 0.00 0.00 0.00 0.00 0.00 0.00 0.00 0.00 0.00 0.00 0.00 0.00 0.00 0.00 0.00 0.00 0.00 0.00 0.00 0.00 0.00 0.01 0.01 0.00 0.00 0.11 0.15 0.43 0.47 0.31 0.31 0.28 0.39 0.63
0.01 0.02 0.01 0.01 0.01 0.02 0.01 0.02 0.01 0.02 0.00 0.01 0.00 0.00 0.00 0.01 0.00 0.00 0.01 0.00 0.00 0.01 0.00 0.00 0.01 0.01 0.00 0.00 0.00 0.00 0.00 0.00 0.00 0.00 0.00 0.00 0.00 0.00 0.00 0.00 0.00 0.00 0.00 0.00 0.00 0.00 0.00 0.00 0.00 0.00 0.00 0.00 0.00 0.00 0.00 0.00 0.00 0.00 0.00 0.00 0.00 0.00 0.00 0.00 0.00 0.00 0.00 0.00 0.00 0.00 0.00 0.00 0.00 0.00 0.00 0.01 0.01 0.01 0.00 0.05 0.19 0.15 0.12 0.26 0.30 0.56 0.41 0.41
0.01 0.01 0.02 0.01 0.02 0.02 0.01 0.01 0.01 0.00 0.01 0.00 0.00 0.00 0.00 0.00 0.00 0.00 0.00 0.01 0.01 0.02 0.04 0.00 0.00 0.01 0.00 0.00 0.00 0.00 0.00 0.00 0.00 0.00 0.00 0.00 0.00 0.00 0.00 0.00 0.00 0.00 0.00 0.00 0.00 0.00 0.00 0.00 0.00 0.00 0.00 0.00 0.00 0.00 0.00 0.00 0.00 0.00 0.00 0.00 0.01 0.00 0.00 0.00 0.00 0.00 0.00 0.00 0.00 0.00 0.00 0.00 0.00 0.00 0.00 0.02 0.01 0.01 0.01 0.05 0.06 0.09 0.09 0.11 0.11 0.16 0.33 0.46
0.03 0.02 0.02 0.02 0.01 0.01 0.01 0.01 0.01 0.01 0.00 0.00 0.01 0.00 0.01 0.00 0.00 0.00 0.01 0.01 0.00 0.00 0.01 0.00 0.00 0.01 0.00 0.00 0.00 0.00 0.00 0.00 0.00 0.00 0.00 0.00 0.00 0.00 0.00 0.00 0.00 0.00 0.00 0.00 0.00 0.00 0.00 0.00 0.00 0.00 0.00 0.00 0.00 0.00 0.00 0.00 0.00 0.00 0.00 0.00 0.00 0.00 0.00 0.00 0.00 0.00 0.00 0.00 0.00 0.00 0.00 0.00 0.00 0.00 0.00 0.00 0.01 0.02 0.01 0.03 0.04 0.10 0.13 0.27 0.14 0.09 0.17 0.20
0.04 0.03 0.02 0.02 0.01 0.01 0.01 0.01 0.00 0.01 0.00 0.00 0.00 0.00 0.00 0.00 0.00 0.00 0.00 0.01 0.01 0.01 0.00 0.01 0.01 0.00 0.01 0.00 0.00 0.00 0.00 0.00 0.00 0.00 0.00 0.00 0.00 0.00 0.00 0.00 0.00 0.00 0.00 0.00 0.00 0.00 0.00 0.00 0.00 0.00 0.00 0.00 0.00 0.00 0.00 0.00 0.00 0.00 0.00 0.00 0.00 0.01 0.00 0.00 0.00 0.00 0.00 0.00 0.00 0.00 0.00 0.00 0.01 0.00 0.01 0.01 0.02 0.01 0.01 0.02 0.05 0.09 0.08 0.07 0.09 0.07 0.16 0.19
0.06 0.03 0.02 0.01 0.01 0.01 0.01 0.00 0.01 0.01 0.01 0.01 0.01 0.00 0.01 0.01 0.08 0.01 0.01 0.02 0.00 0.00 0.00 0.00 0.00 0.00 0.00 0.00 0.00 0.00 0.00 0.00 0.00 0.00 0.00 0.00 0.00 0.00 0.00 0.00 0.00 0.00 0.00 0.00 0.00 0.00 0.00 0.00 0.00 0.00 0.00 0.00 0.00 0.00 0.00 0.00 0.00 0.00 0.00 0.00 0.00 0.00 0.00 0.00 0.00 0.00 0.00 0.00 0.00 0.00 0.00 0.00 0.00 0.00 0.00 0.00 0.02 0.02 0.02 0.03 0.03 0.13 0.06 0.04 0.09 0.17 0.10 0.16
0.05 0.06 0.03 0.01 0.02 0.01 0.00 0.00 0.00 0.00 0.01 0.06 0.02 0.00 0.00 0.00 0.03 0.07 0.02 0.00 0.00 0.00 0.00 0.00 0.00 0.00 0.00 0.00 0.00 0.00 0.00 0.00 0.00 0.00 0.00 0.00 0.00 0.00 0.00 0.00 0.00 0.00 0.00 0.00 0.00 0.00 0.00 0.00 0.00 0.00 0.00 0.00 0.00 0.00 0.00 0.00 0.00 0.00 0.00 0.00 0.00 0.00 0.00 0.00 0.00 0.00 0.00 0.00 0.00 0.00 0.01 0.00 0.00 0.00 0.00 0.01 0.01 0.02 0.01 0.01 0.02 0.03 0.04 0.08 0.13 0.13 0.13 0.23
0.04 0.07 0.04 0.03 0.01 0.01 0.01 0.01 0.00 0.00 0.01 0.03 0.01 0.00 0.00 0.00 0.00 0.00 0.00 0.04 0.00 0.00 0.00 0.00 0.00 0.00 0.00 0.00 0.00 0.00 0.00 0.00 0.00 0.00 0.00 0.00 0.00 0.00 0.00 0.00 0.00 0.00 0.00 0.00 0.00 0.00 0.00 0.00 0.00 0.00 0.00 0.00 0.00 0.00 0.00 0.00 0.00 0.00 0.00 0.00 0.00 0.01 0.00 0.00 0.00 0.00 0.00 0.00 0.00 0.00 0.01 0.00 0.00 0.00 0.01 0.00 0.01 0.01 0.01 0.01 0.01 0.01 0.03 0.03 0.13 0.68 0.56 0.58
0.08 0.05 0.02 0.02 0.01 0.00 0.01 0.01 0.00 0.00 0.01 0.01 0.00 0.00 0.00 0.00 0.00 0.00 0.00 0.00 0.00 0.00 0.00 0.00 0.00 0.00 0.00 0.00 0.00 0.00 0.00 0.00 0.00 0.00 0.00 0.00 0.00 0.00 0.00 0.00 0.00 0.00 0.00 0.00 0.00 0.00 0.00 0.00 0.00 0.00 0.00 0.00 0.00 0.00 0.00 0.00 0.00 0.00 0.00 0.00 0.00 0.00 0.00 0.03 0.00 0.00 0.00 0.00 0.00 0.00 0.03 0.01 0.00 0.00 0.00 0.01 0.01 0.06 0.02 0.01 0.01 0.01 0.14 0.14 0.26 0.41 0.26 0.22
0.05 0.04 0.01 0.02 0.02 0.01 0.00 0.00 0.01 0.01 0.00 0.00 0.00 0.00 0.00 0.00 0.00 0.00 0.00 0.00 0.00 0.00 0.00 0.00 0.00 0.00 0.00 0.00 0.00 0.00 0.00 0.00 0.00 0.00 0.00 0.00 0.00 0.00 0.00 0.00 0.00 0.00 0.00 0.00 0.00 0.00 0.00 0.00 0.00 0.00 0.00 0.00 0.00 0.00 0.00 0.00 0.00 0.00 0.00 0.00 0.00 0.00 0.00 0.00 0.06 0.00 0.00 0.00 0.00 0.00 0.02 0.01 0.00 0.00 0.00 0.00 0.00 0.01 0.01 0.02 0.01 0.01 0.03 0.04 0.07 0.22 0.21 0.24
0.03 0.03 0.07 0.03 0.02 0.01 0.00 0.00 0.00 0.00 0.01 0.00 0.00 0.00 0.00 0.00 0.00 0.00 0.01 0.01 0.01 0.00 0.00 0.00 0.00 0.00 0.00 0.00 0.00 0.00 0.00 0.00 0.00 0.00 0.00 0.00 0.00 0.00 0.00 0.00 0.00 0.00 0.00 0.00 0.00 0.00 0.00 0.00 0.00 0.00 0.00 0.00 0.00 0.00 0.00 0.00 0.00 0.00 0.00 0.00 0.00 0.00 0.00 0.00 0.00 0.00 0.00 0.02 0.00 0.01 0.02 0.05 0.01 0.00 0.01 0.00 0.00 0.01 0.01 0.02 0.01 0.02 0.07 0.05 0.08 0.23 0.33 0.28
0.04 0.02 0.06 0.04 0.02 0.00 0.00 0.00 0.01 0.00 0.00 0.00 0.01 0.00 0.00 0.00 0.00 0.00 0.02 0.08 0.02 0.06 0.01 0.00 0.00 0.00 0.00 0.00 0.00 0.00 0.00 0.00 0.00 0.00 0.00 0.00 0.00 0.00 0.00 0.00 0.00 0.00 0.00 0.00 0.00 0.00 0.00 0.00 0.00 0.00 0.00 0.00 0.00 0.00 0.00 0.00 0.00 0.00 0.03 0.00 0.00 0.00 0.00 0.00 0.00 0.00 0.00 0.02 0.04 0.00 0.01 0.04 0.01 0.01 0.00 0.00 0.00 0.01 0.01 0.02 0.03 0.05 0.05 0.06 0.14 0.29 0.25 0.24
0.04 0.05 0.03 0.07 0.02 0.02 0.01 0.01 0.00 0.00 0.02 0.00 0.00 0.01 0.00 0.00 0.00 0.02 0.03 0.04 0.08 0.13 0.00 0.02 0.00 0.00 0.00 0.00 0.00 0.00 0.00 0.00 0.00 0.00 0.00 0.00 0.00 0.00 0.00 0.00 0.00 0.00 0.00 0.00 0.00 0.00 0.00 0.00 0.00 0.00 0.00 0.00 0.00 0.00 0.00 0.00 0.00 0.02 0.01 0.00 0.00 0.01 0.00 0.00 0.00 0.00 0.01 0.00 0.01 0.00 0.01 0.06 0.06 0.06 0.00 0.00 0.01 0.02 0.03 0.03 0.06 0.07 0.12 0.10 0.19 0.21 0.18 0.20
0.06 0.06 0.05 0.06 0.02 0.03 0.06 0.03 0.00 0.00 0.01 0.02 0.01 0.00 0.01 0.01 0.00 0.01 0.09 0.13 0.02 0.01 0.03 0.00 0.00 0.00 0.00 0.00 0.00 0.00 0.00 0.00 0.00 0.00 0.00 0.00 0.00 0.00 0.00 0.00 0.00 0.00 0.00 0.00 0.01 0.00 0.00 0.00 0.00 0.00 0.00 0.00 0.00 0.00 0.00 0.00 0.00 0.01 0.00 0.00 0.00 0.00 0.02 0.00 0.00 0.01 0.05 0.01 0.04 0.00 0.01 0.03 0.08 0.10 0.01 0.00 0.02 0.04 0.08 0.06 0.12 0.13 0.12 0.27 0.27 0.21 0.14 0.14
0.04 0.07 0.05 0.05 0.02 0.01 0.02 0.03 0.01 0.01 0.01 0.01 0.00 0.00 0.00 0.00 0.04 0.16 0.44 0.18 0.51 0.00 0.00 0.09 0.00 0.00 0.00 0.00 0.00 0.00 0.00 0.00 0.00 0.00 0.00 0.00 0.00 0.00 0.00 0.00 0.00 0.00 0.00 0.00 0.00 0.01 0.00 0.00 0.00 0.00 0.00 0.00 0.00 0.00 0.00 0.00 0.01 0.00 0.00 0.00 0.00 0.00 0.00 0.00 0.02 0.00 0.09 0.00 0.04 0.05 0.10 0.02 0.12 0.09 0.09 0.02 0.04 0.14 0.13 0.17 0.16 0.14 0.16 0.21 0.14 0.15 0.14 0.16
0.06 0.05 0.04 0.03 0.04 0.02 0.02 0.04 0.02 0.00 0.04 0.01 0.00 0.00 0.00 0.01 0.20 0.21 0.26 0.05 0.30 0.21 0.00 0.03 0.00 0.00 0.00 0.00 0.00 0.00 0.00 0.00 0.00 0.00 0.00 0.00 0.00 0.00 0.00 0.00 0.00 0.00 0.00 0.00 0.00 0.00 0.00 0.00 0.00 0.00 0.00 0.00 0.00 0.00 0.00 0.00 0.00 0.00 0.00 0.00 0.00 0.00 0.03 0.01 0.00 0.05 0.05 0.03 0.03 0.03 0.02 0.01 0.18 0.15 0.07 0.07 0.13 0.06 0.18 0.13 0.17 0.11 0.10 0.15 0.14 0.14 0.17 0.23
0.07 0.12 0.09 0.08 0.09 0.00 0.01 0.00 0.00 0.02 0.04 0.03 0.00 0.00 0.02 0.21 0.27 0.30 0.05 0.05 0.03 0.12 0.00 0.00 0.00 0.00 0.00 0.00 0.01 0.00 0.00 0.00 0.00 0.00 0.00 0.00 0.00 0.00 0.00 0.02 0.01 0.01 0.00 0.00 0.00 0.00 0.00 0.00 0.00 0.00 0.00 0.00 0.00 0.00 0.00 0.00 0.00 0.00 0.00 0.02 0.00 0.02 0.00 0.01 0.05 0.04 0.09 0.01 0.03 0.02 0.01 0.02 0.14 0.22 0.16 0.14 0.06 0.10 0.09 0.15 0.15 0.18 0.18 0.14 0.18 0.18 0.14 0.21
0.08 0.07 0.10 0.15 0.03 0.03 0.06 0.00 0.03 0.01 0.15 0.03 0.01 0.01 0.18 0.30 0.16 0.20 0.07 0.01 0.27 0.29 0.14 0.06 0.00 0.00 0.00 0.00 0.00 0.00 0.00 0.00 0.00 0.00 0.00 0.00 0.00 0.00 0.00 0.00 0.00 0.00 0.01 0.01 0.04 0.00 0.00 0.00 0.00 0.00 0.00 0.00 0.00 0.00 0.00 0.00 0.00 0.00 0.00 0.02 0.21 0.19 0.02 0.10 0.05 0.03 0.00 0.03 0.08 0.00 0.01 0.02 0.02 0.20 0.40 0.19 0.09 0.12 0.11 0.11 0.12 0.10 0.12 0.12 0.15 0.18 0.18 0.16
0.05 0.04 0.11 0.08 0.05 0.03 0.01 0.00 0.00 0.01 0.11 0.11 0.07 0.08 0.34 0.26 0.08 0.05 0.15 0.06 0.44 0.08 0.10 0.03 0.02 0.01 0.02 0.00 0.00 0.00 0.00 0.02 0.02 0.00 0.00 0.00 0.00 0.00 0.00 0.01 0.00 0.00 0.05 0.06 0.02 0.00 0.00 0.00 0.00 0.00 0.00 0.00 0.00 0.00 0.02 0.01 0.00 0.00 0.03 0.08 0.08 0.17 0.07 0.02 0.07 0.02 0.06 0.02 0.02 0.05 0.02 0.05 0.22 0.21 0.25 0.44 0.19 0.15 0.10 0.08 0.09 0.11 0.11 0.10 0.13 0.14 0.19 0.23
0.05 0.10 0.09 0.02 0.04 0.01 0.00 0.00 0.00 0.00 0.02 0.04 0.07 0.13 0.55 0.13 0.06 0.03 0.10 0.22 0.47 0.14 0.03 0.15 0.05 0.01 0.00 0.05 0.01 0.01 0.02 0.01 0.00 0.00 0.00 0.02 0.01 0.02 0.00 0.00 0.00 0.02 0.00 0.01 0.01 0.02 0.07 0.10 0.00 0.00 0.01 0.00 0.00 0.00 0.01 0.02 0.01 0.01 0.00 0.00 0.08 0.11 0.07 0.02 0.05 0.05 0.03 0.18 0.07 0.05 0.01 0.09 0.15 0.67 0.39 0.47 0.28 0.12 0.07 0.08 0.08 0.11 0.14 0.17 0.16 0.18 0.53 0.93
0.02 0.02 0.01 0.01 0.01 0.00 0.00 0.00 0.02 0.01 0.01 0.06 0.06 0.19 0.11 0.06 0.06 0.09 0.09 0.14 0.19 0.24 0.10 0.11 0.08 0.03 0.07 0.01 0.01 0.01 0.00 0.11 0.00 0.01 0.00 0.00 0.04 0.01 0.01 0.00 0.00 0.00 0.01 0.02 0.03 0.01 0.00 0.02 0.01 0.00 0.00 0.00 0.00 0.00 0.00 0.00 0.01 0.01 0.00 0.00 0.03 0.02 0.00 0.10 0.24 0.03 0.14 0.08 0.06 0.05 0.06 0.34 0.92 0.82 0.56 0.27 0.18 0.05 0.05 0.07 0.19 0.13 0.14 0.19 0.16 0.34 0.28 0.25
0.02 0.20 0.02 0.01 0.01 0.00 0.00 0.00 0.01 0.34 0.04 0.08 0.13 0.12 0.09 0.03 0.22 0.10 0.28 0.09 0.73 0.38 0.07 0.05 0.15 0.10 0.04 0.03 0.00 0.05 0.02 0.09 0.03 0.03 0.03 0.00 0.01 0.03 0.00 0.00 0.00 0.00 0.04 0.00 0.12 0.04 0.01 0.12 0.00 0.01 0.00 0.00 0.00 0.00 0.00 0.00 0.13 0.18 0.00 0.05 0.02 0.01 0.02 0.04 0.00 0.00 0.00 0.00 0.04 0.01 0.12 0.31 0.28 1.24 0.51 0.61 0.24 0.16 0.12 0.13 0.13 0.24 0.16 0.26 0.32 0.30 0.50 0.90
0.21 0.02 0.05 0.00 0.00 0.00 0.01 0.00 0.00 0.12 0.09 0.11 0.15 0.06 0.01 0.04 0.05 0.08 0.23 0.19 0.45 0.32 0.10 0.36 0.17 0.18 0.13 0.04 0.05 0.01 0.10 0.01 0.16 0.02 0.15 0.00 0.05 0.01 0.01 0.00 0.00 0.00 0.00 0.00 0.06 0.00 0.06 0.22 0.01 0.02 0.00 0.00 0.00 0.00 0.00 0.00 0.00 0.00 0.02 0.03 0.00 0.00 0.02 0.02 0.12 0.04 0.01 0.02 0.13 0.03 0.09 0.49 0.09 1.04 0.89 0.65 0.24 0.25 0.22 0.26 0.15 0.36 0.57 0.57 0.52 0.56 0.75 1.20
0.08 0.08 0.07 0.02 0.01 0.00 0.00 0.01 0.01 0.15 0.16 0.14 0.12 0.02 0.01 0.02 0.10 0.03 0.22 0.17 0.16 0.35 0.35 0.27 0.35 0.07 0.07 0.06 0.03 0.02 0.05 0.06 0.30 0.03 0.19 0.02 0.22 0.00 0.01 0.01 0.00 0.00 0.00 0.00 0.01 0.07 0.00 0.08 0.03 0.00 0.00 0.00 0.00 0.00 0.00 0.00 0.00 0.00 0.07 0.00 0.02 0.06 0.05 0.03 0.00 0.03 0.02 0.01 0.09 0.08 0.12 0.10 0.15 0.51 0.29 0.63 0.25 0.34 0.26 0.26 0.28 0.22 0.29 0.41 0.75 0.88 0.99 1.75
0.06 0.16 0.19 0.03 0.01 0.01 0.01 0.01 0.01 0.14 0.26 0.14 0.04 0.08 0.00 0.03 0.14 0.08 0.11 0.12 0.10 0.32 0.11 0.17 0.35 0.18 0.16 0.06 0.05 0.04 0.06 0.13 0.08 0.14 0.16 0.21 0.23 0.03 0.11 0.01 0.04 0.00 0.00 0.00 0.00 0.01 0.00 0.02 0.07 0.00 0.00 0.02 0.00 0.00 0.02 0.00 0.00 0.00 0.00 0.00 0.00 0.00 0.05 0.08 0.02 0.15 0.01 0.18 0.04 0.20 0.10 0.26 0.15 0.42 0.21 0.33 0.22 0.31 0.27 0.34 0.34 0.37 0.35 0.54 1.21 0.87 0.83 1.21
0.12 0.25 0.38 0.14 0.01 0.01 0.04 0.02 0.07 0.18 0.16 0.06 0.02 0.01 0.01 0.02 0.01 0.04 0.14 0.10 0.20 0.16 0.09 0.14 0.24 0.46 0.06 0.06 0.02 0.10 0.13 0.09 0.09 0.22 0.10 0.40 0.07 0.05 0.08 0.00 0.08 0.00 0.00 0.00 0.00 0.00 0.03 0.00 0.11 0.06 0.00 0.00 0.04 0.00 0.01 0.01 0.04 0.00 0.00 0.00 0.01 0.01 0.03 0.01 0.10 0.02 0.17 0.13 0.09 0.12 0.15 0.48 0.48 0.18 0.14 0.26 0.29 0.36 0.55 0.66 0.75 0.67 0.77 0.88 1.06 1.40 1.28 1.40
0.12 0.54 0.71 0.42 0.28 0.03 0.12 0.10 0.10 0.11 0.03 0.00 0.00 0.01 0.00 0.02 0.03 0.06 0.07 0.04 0.08 0.11 0.11 0.07 0.17 0.22 0.16 0.06 0.08 0.01 0.04 0.05 0.14 0.28 0.07 0.11 0.03 0.23 0.00 0.05 0.00 0.07 0.00 0.02 0.01 0.04 0.00 0.00 0.03 0.01 0.03 0.01 0.01 0.00 0.01 0.00 0.00 0.00 0.01 0.05 0.05 0.09 0.16 0.10 0.10 0.00 0.08 0.04 0.11 0.10 0.19 0.54 0.29 0.22 0.32 0.36 0.50 0.50 0.57 0.60 0.80 0.98 1.11 0.97 1.45 1.33 1.42 1.56
0.50 0.61 0.86 0.46 0.29 0.07 0.10 0.31 0.09 0.03 0.01 0.01 0.03 0.00 0.01 0.00 0.01 0.06 0.04 0.03 0.03 0.20 0.07 0.05 0.06 0.18 0.17 0.03 0.04 0.03 0.02 0.07 0.08 0.08 0.06 0.27 0.36 0.18 0.17 0.00 0.01 0.03 0.07 0.04 0.01 0.03 0.02 0.01 0.06 0.01 0.11 0.07 0.02 0.02 0.00 0.00 0.00 0.00 0.00 0.02 0.00 0.04 0.01 0.14 0.19 0.27 0.09 0.07 0.04 0.20 0.10 0.49 0.40 0.53 0.60 0.44 0.54 0.49 0.67 1.03 0.76 0.54 0.70 0.88 0.74 0.85 0.93 0.71
0.23 0.80 1.67 0.72 0.45 0.15 0.12 0.18 0.14 0.10 0.11 0.06 0.01 0.00 0.00 0.01 0.02 0.06 0.05 0.04 0.10 0.07 0.05 0.04 0.09 0.06 0.08 0.07 0.03 0.06 0.03 0.09 0.04 0.21 0.19 0.19 0.39 0.15 0.03 0.01 0.01 0.00 0.00 0.08 0.02 0.03 0.00 0.01 0.01 0.04 0.15 0.03 0.02 0.00 0.00 0.00 0.00 0.00 0.00 0.00 0.00 0.06 0.09 0.09 0.13 0.21 0.13 0.12 0.07 0.18 0.07 0.80 0.32 0.55 0.99 0.61 0.44 0.49 0.47 0.58 0.59 0.72 0.67 0.44 0.66 0.44 1.10 1.06
0.47 1.66 0.78 0.78 0.49 0.30 0.38 0.25 0.17 0.06 0.12 0.05 0.05 0.03 0.00 0.01 0.02 0.05 0.03 0.04 0.06 0.09 0.04 0.01 0.02 0.01 0.10 0.16 0.03 0.10 0.06 0.13 0.03 0.10 0.14 0.07 0.24 0.04 0.01 0.01 0.01 0.04 0.08 0.40 0.08 0.08 0.08 0.02 0.01 0.12 0.07 0.18 0.15 0.04 0.01 0.00 0.00 0.01 0.02 0.01 0.00 0.01 0.04 0.10 0.08 0.13 0.01 0.04 0.19 0.13 0.22 0.43 0.51 0.70 0.53 0.42 0.42 0.41 0.66 0.52 0.44 0.68 0.61 0.43 0.32 0.45 0.49 0.58
0.72 1.27 1.18 0.95 0.43 0.39 0.44 0.52 0.12 0.08 0.16 0.09 0.14 0.06 0.13 0.01 0.01 0.04 0.05 0.07 0.04 0.03 0.02 0.02 0.00 0.08 0.14 0.04 0.01 0.08 0.06 0.13 0.10 0.17 0.06 0.22 0.30 0.00 0.01 0.02 0.01 0.13 0.10 0.02 0.05 0.03 0.05 0.08 0.02 0.07 0.24 0.21 0.23 0.23 0.21 0.12 0.05 0.02 0.02 0.01 0.05 0.02 0.08 0.15 0.05 0.06 0.05 0.07 0.12 0.10 0.57 0.41 0.65 0.63 0.60 0.32 0.30 0.34 0.39 0.41 0.51 1.03 1.07 0.63 0.61 0.89 0.65 0.76
1.14 1.28 0.88 0.95 1.29 0.84 0.19 0.23 0.18 0.28 0.15 0.16 0.04 0.07 0.01 0.10 0.02 0.03 0.02 0.05 0.02 0.02 0.12 0.01 0.00 0.01 0.04 0.06 0.04 0.06 0.12 0.08 0.11 0.05 0.06 0.30 0.18 0.07 0.03 0.01 0.04 0.03 0.04 0.02 0.08 0.10 0.27 0.05 0.10 0.10 0.28 0.47 0.27 0.24 0.14 0.04 0.03 0.06 0.07 0.05 0.06 0.00 0.03 0.07 0.12 0.15 0.12 0.15 0.11 0.10 0.13 0.47 0.56 0.54 0.41 0.45 0.28 0.48 0.48 0.38 0.31 0.32 0.36 0.40 0.50 0.53 0.62 0.52
0.86 1.07 0.79 0.41 0.32 0.67 0.49 0.21 0.16 0.17 0.13 0.10 0.10 0.04 0.07 0.05 0.14 0.09 0.04 0.17 0.02 0.01 0.10 0.04 0.01 0.01 0.07 0.05 0.02 0.07 0.15 0.12 0.04 0.04 0.19 0.34 0.25 0.27 0.02 0.16 0.05 0.00 0.01 0.03 0.08 0.21 0.58 0.33 0.17 0.05 0.22 0.11 0.03 0.14 0.03 0.04 0.12 0.11 0.13 0.06 0.02 0.05 0.04 0.08 0.03 0.13 0.26 0.16 0.26 0.23 0.15 0.14 0.35 0.30 0.27 0.37 0.39 0.46 0.50 0.26 0.24 0.38 0.54 0.54 0.43 0.38 0.46 0.50
0.87 1.02 0.77 0.71 0.39 0.42 0.34 0.68 0.31 0.37 0.22 0.11 0.37 0.06 0.08 0.18 0.15 0.27 0.12 0.03 0.02 0.01 0.13 0.07 0.01 0.00 0.01 0.04 0.05 0.09 0.12 0.08 0.11 0.04 0.18 0.13 0.10 0.35 0.52 0.20 0.26 0.08 0.05 0.08 0.03 0.05 0.21 0.23 0.36 0.31 0.24 0.21 0.11 0.03 0.09 0.05 0.09 0.13 0.11 0.18 0.16 0.11 0.07 0.13 0.10 0.12 0.17 0.11 0.45 0.41 0.48 0.13 0.26 0.28 0.34 0.21 0.17 0.19 0.21 0.27 0.25 0.46 0.38 0.43 0.42 0.58 0.54 0.39
1.43 0.98 1.00 0.36 0.24 0.44 0.23 0.33 0.26 0.27 0.54 0.31 0.21 0.05 0.14 0.14 0.24 0.22 0.21 0.40 0.05 0.08 0.02 0.05 0.02 0.01 0.02 0.12 0.11 0.18 0.14 0.13 0.05 0.22 0.23 0.20 0.31 0.31 0.49 0.38 0.22 0.12 0.04 0.18 0.06 0.10 0.10 0.36 0.41 0.36 0.38 0.49 0.22 0.15 0.11 0.20 0.17 0.10 0.03 0.16 0.19 0.20 0.20 0.08 0.06 0.12 0.17 0.12 0.12 0.10 0.11 0.21 0.36 0.42 0.25 0.31 0.24 0.15 0.24 0.15 0.23 0.44 0.46 0.39 0.54 0.29 0.19 0.22
1.29 1.56 1.37 0.32 0.33 0.31 0.28 0.58 0.54 0.40 0.34 0.14 0.20 0.13 0.22 0.27 0.25 0.34 0.21 0.23 0.16 0.18 0.06 0.26 0.05 0.02 0.01 0.34 0.21 0.20 0.24 0.20 0.22 0.13 0.17 0.24 0.43 0.21 0.33 0.53 0.77 0.12 0.07 0.18 0.11 0.23 0.31 0.60 0.12 0.37 0.36 0.31 0.45 0.26 0.22 0.37 0.14 0.17 0.02 0.04 0.04 0.12 0.05 0.07 0.12 0.08 0.07 0.17 0.13 0.02 0.01 0.17 0.33 0.19 0.22 0.36 0.23 0.16 0.15 0.17 0.15 0.18 0.27 0.47 0.30 0.43 0.44 0.24
1.03 1.00 0.85 0.52 0.40 0.32 0.23 0.42 0.33 0.44 0.56 0.41 0.27 0.34 0.25 0.20 0.26 0.36 0.59 0.15 0.15 0.24 0.11 0.23 0.09 0.09 0.03 0.08 0.05 0.11 0.15 0.15 0.10 0.13 0.54 0.21 0.24 0.29 0.14 0.40 0.04 0.33 0.20 0.38 0.19 0.53 0.14 0.94 0.38 0.76 0.33 0.51 0.45 0.50 0.38 0.48 0.32 0.33 0.21 0.09 0.06 0.22 0.18 0.08 0.18 0.26 0.21 0.28 0.28 0.24 0.04 0.14 0.41 0.18 0.19 0.16 0.18 0.16 0.13 0.14 0.14 0.42 0.25 0.23 0.29 0.17 0.26 0.45
0.72 0.86 0.62 0.58 0.22 0.05 0.27 0.10 0.32 0.23 0.37 0.52 0.67 0.46 0.28 0.41 0.19 0.21 0.43 0.08 0.12 0.07 0.10 0.13 0.13 0.14 0.33 0.24 0.13 0.22 0.14 0.14 0.15 0.06 0.11 0.16 0.20 0.52 0.05 0.27 0.22 0.42 0.34 0.10 0.27 0.35 0.44 0.19 0.34 0.33 0.33 0.47 0.67 0.53 0.59 0.37 0.42 0.53 0.37 0.18 0.15 0.22 0.20 0.12 0.12 0.13 0.15 0.32 0.72 0.46 0.24 0.14 0.20 0.17 0.12 0.20 0.17 0.20 0.17 0.16 0.14 0.08 0.12 0.09 0.10 0.11 0.19 0.23